When you browse on this site, cookies collect data to enhance your experience and personalize the content and advertising you see.
Visit our Privacy Policy to learn more. By continuing to use the site, you agree to this use of cookies and data.
  • In United Kingdom
  • List of Countries
  • For 7 days
  • Water Temperature
  • Satellite Maps
  • Weather Map
  • Weather Widgets
  • user-avatar
    Login

    Hourly Weather Bristol

    Today, 17 January, Thursday

    Time Temperature Precipitation Wind Pressure Humidity
    00:00 +4°C° 0 mm 4 mps 751 mmHg 89%
    01:00 +3°C° 0.1 mm 5 mps 751 mmHg 88%
    02:00 +2°C° 0.1 mm 5 mps 751 mmHg 86%
    03:00 +2°C° 0.1 mm 5 mps 752 mmHg 84%
    04:00 +2°C° 0 mm 5 mps 752 mmHg 84%
    05:00 +2°C° 0 mm 5 mps 753 mmHg 85%
    06:00 +1°C° 0 mm 5 mps 754 mmHg 85%
    07:00 +1°C° 0 mm 5 mps 755 mmHg 83%
    08:00 +1°C° 0 mm 5 mps 756 mmHg 80%
    09:00 0°C° 0 mm 5 mps 757 mmHg 78%
    10:00 +1°C° 0 mm 5 mps 758 mmHg 72%
    11:00 +2°C° 0 mm 6 mps 759 mmHg 65%
    12:00 +3°C° 0 mm 6 mps 760 mmHg 59%
    13:00 +3°C° 0 mm 5 mps 760 mmHg 60%
    14:00 +4°C° 0 mm 4 mps 760 mmHg 61%
    15:00 +4°C° 0 mm 3 mps 761 mmHg 61%
    16:00 +3°C° 0 mm 3 mps 761 mmHg 64%
    17:00 +3°C° 0 mm 2 mps 761 mmHg 66%
    18:00 +2°C° 0 mm 2 mps 762 mmHg 68%
    19:00 +3°C° 0 mm 1 mps 762 mmHg 69%
    20:00 +3°C° 0 mm 1 mps 762 mmHg 70%
    21:00 +2°C° 0 mm 0 mps 762 mmHg 71%
    22:00 +3°C° 0 mm 1 mps 762 mmHg 70%
    23:00 +3°C° 0 mm 1 mps 763 mmHg 70%

    Tomorrow, 18 January, Friday

    Time Temperature Precipitation Wind Pressure Humidity
    00:00 +2°C° 0 mm 1 mps 763 mmHg 70%
    01:00 +2°C° 0 mm 1 mps 762 mmHg 70%
    02:00 +1°C° 0 mm 2 mps 762 mmHg 69%
    03:00 +1°C° 0 mm 2 mps 762 mmHg 69%
    04:00 0°C° 0 mm 3 mps 761 mmHg 69%
    05:00 0°C° 0 mm 3 mps 761 mmHg 69%
    06:00 -1°C° 0 mm 4 mps 760 mmHg 70%
    07:00 0°C° 0 mm 4 mps 760 mmHg 69%
    08:00 0°C° 0 mm 5 mps 760 mmHg 69%
    09:00 +1°C° 0 mm 5 mps 759 mmHg 68%
    10:00 +2°C° 0.3 mm 5 mps 759 mmHg 71%
    11:00 +3°C° 0.3 mm 6 mps 759 mmHg 75%
    12:00 +3°C° 0.3 mm 6 mps 758 mmHg 78%
    13:00 +3°C° 0.8 mm 6 mps 758 mmHg 79%
    14:00 +3°C° 0.8 mm 7 mps 757 mmHg 79%
    15:00 +3°C° 0.8 mm 7 mps 756 mmHg 80%
    16:00 +3°C° 0.5 mm 7 mps 756 mmHg 82%
    17:00 +2°C° 0.5 mm 8 mps 756 mmHg 85%
    18:00 +2°C° 0.5 mm 8 mps 756 mmHg 87%
    19:00 +2°C° 0.2 mm 8 mps 755 mmHg 88%
    20:00 +4°C° 0.2 mm 7 mps 755 mmHg 90%
    21:00 +4°C° 0.2 mm 7 mps 755 mmHg 91%
    22:00 +4°C° 0.2 mm 6 mps 755 mmHg 92%
    23:00 +5°C° 0.2 mm 5 mps 754 mmHg 93%

    Day after tomorrow, 19 January, Saturday

    Time Temperature Precipitation Wind Pressure Humidity
    00:00 +5°C° 0.2 mm 4 mps 754 mmHg 93%
    01:00 +5°C° 0.1 mm 4 mps 754 mmHg 93%
    02:00 +4°C° 0.1 mm 3 mps 754 mmHg 93%
    03:00 +4°C° 0.1 mm 3 mps 753 mmHg 93%
    04:00 +4°C° 0.1 mm 3 mps 753 mmHg 93%
    05:00 +3°C° 0.1 mm 3 mps 753 mmHg 93%
    06:00 +4°C° 0.1 mm 2 mps 752 mmHg 92%
    07:00 +5°C° 0.3 mm 2 mps 752 mmHg 92%
    08:00 +5°C° 0.3 mm 2 mps 753 mmHg 91%
    09:00 +4°C° 0.3 mm 3 mps 753 mmHg 91%
    10:00 +5°C° 0 mm 3 mps 753 mmHg 88%
    11:00 +7°C° 0 mm 3 mps 753 mmHg 86%
    12:00 +8°C° 0 mm 3 mps 753 mmHg 84%
    13:00 +8°C° 0.1 mm 3 mps 753 mmHg 85%
    14:00 +8°C° 0.1 mm 2 mps 753 mmHg 86%
    15:00 +8°C° 0.1 mm 2 mps 753 mmHg 86%
    16:00 +8°C° 0.1 mm 2 mps 753 mmHg 88%
    17:00 +8°C° 0.1 mm 1 mps 753 mmHg 90%
    18:00 +7°C° 0.1 mm 1 mps 753 mmHg 92%
    19:00 +7°C° 0.4 mm 1 mps 754 mmHg 93%
    20:00 +7°C° 0.4 mm 1 mps 754 mmHg 94%
    21:00 +6°C° 0.4 mm 0 mps 754 mmHg 95%
    22:00 +7°C° 0 mm 1 mps 755 mmHg 95%
    23:00 +7°C° 0 mm 1 mps 755 mmHg 95%

    20 January, Sunday

    Time Temperature Precipitation Wind Pressure Humidity
    00:00 +6°C° 0 mm 2 mps 756 mmHg 95%
    01:00 +5°C° 0 mm 2 mps 756 mmHg 95%
    02:00 +4°C° 0 mm 2 mps 756 mmHg 95%
    03:00 +2°C° 0 mm 3 mps 757 mmHg 95%
    04:00 +2°C° 0 mm 3 mps 757 mmHg 94%
    05:00 +2°C° 0 mm 3 mps 758 mmHg 93%
    06:00 +2°C° 0 mm 2 mps 758 mmHg 93%
    07:00 +2°C° 0 mm 2 mps 759 mmHg 92%
    08:00 +2°C° 0 mm 2 mps 760 mmHg 92%
    09:00 +2°C° 0 mm 2 mps 761 mmHg 92%
    10:00 +4°C° 0 mm 2 mps 761 mmHg 88%
    11:00 +5°C° 0 mm 2 mps 762 mmHg 84%
    12:00 +5°C° 0 mm 3 mps 762 mmHg 79%
    13:00 +7°C° 0 mm 3 mps 763 mmHg 81%
    14:00 +7°C° 0 mm 3 mps 763 mmHg 82%
    15:00 +6°C° 0 mm 4 mps 764 mmHg 83%
    16:00 +6°C° 0 mm 5 mps 764 mmHg 83%
    17:00 +5°C° 0 mm 5 mps 765 mmHg 83%
    18:00 +3°C° 0 mm 6 mps 766 mmHg 83%
    19:00 +2°C° 0 mm 6 mps 766 mmHg 83%
    20:00 +2°C° 0 mm 5 mps 767 mmHg 83%
    21:00 +1°C° 0 mm 5 mps 768 mmHg 83%
    22:00 0°C° 0 mm 4 mps 768 mmHg 84%
    23:00 0°C° 0 mm 4 mps 768 mmHg 85%

    21 January, Monday

    Time Temperature Precipitation Wind Pressure Humidity
    00:00 0°C° 0 mm 3 mps 769 mmHg 86%
    01:00 0°C° 0 mm 3 mps 769 mmHg 86%
    02:00 0°C° 0 mm 3 mps 769 mmHg 86%
    03:00 +1°C° 0 mm 2 mps 769 mmHg 87%
    04:00 +1°C° 0 mm 2 mps 769 mmHg 87%
    05:00 -1°C° 0 mm 2 mps 769 mmHg 87%
    06:00 -1°C° 0 mm 2 mps 769 mmHg 88%
    07:00 +1°C° 0 mm 1 mps 769 mmHg 86%
    08:00 +2°C° 0 mm 1 mps 769 mmHg 85%
    09:00 +2°C° 0 mm 1 mps 769 mmHg 84%
    10:00 +3°C° 0 mm 1 mps 769 mmHg 79%
    11:00 +4°C° 0 mm 2 mps 768 mmHg 75%
    12:00 +5°C° 0 mm 2 mps 768 mmHg 70%
    13:00 +4°C° 0 mm 3 mps 767 mmHg 71%
    14:00 +4°C° 0 mm 3 mps 766 mmHg 72%
    15:00 +4°C° 0 mm 4 mps 765 mmHg 73%
    16:00 +4°C° 0 mm 4 mps 764 mmHg 75%
    17:00 +3°C° 0 mm 4 mps 763 mmHg 78%
    18:00 +2°C° 0 mm 5 mps 762 mmHg 80%
    19:00 +2°C° 0.1 mm 5 mps 760 mmHg 81%
    20:00 +2°C° 0.1 mm 6 mps 758 mmHg 82%
    21:00 +2°C° 0.1 mm 6 mps 757 mmHg 82%
    22:00 +3°C° 1.1 mm 7 mps 755 mmHg 84%
    23:00 +2°C° 1.1 mm 8 mps 753 mmHg 86%

    22 January, Tuesday

    Time Temperature Precipitation Wind Pressure Humidity
    00:00 +2°C° 1.1 mm 9 mps 752 mmHg 88%
    01:00 +2°C° 1.5 mm 8 mps 751 mmHg 85%
    02:00 +2°C° 1.5 mm 7 mps 750 mmHg 83%
    03:00 +2°C° 1.5 mm 7 mps 749 mmHg 80%
    04:00 0°C° 0.2 mm 7 mps 748 mmHg 81%
    05:00 +1°C° 0.2 mm 6 mps 748 mmHg 81%
    06:00 -1°C° 0.2 mm 6 mps 748 mmHg 81%
    07:00 +1°C° 0.3 mm 6 mps 748 mmHg 81%
    08:00 0°C° 0.3 mm 7 mps 748 mmHg 81%
    09:00 0°C° 0.3 mm 7 mps 748 mmHg 82%
    10:00 0°C° 0.4 mm 7 mps 748 mmHg 82%
    11:00 0°C° 0.4 mm 8 mps 748 mmHg 82%
    12:00 +1°C° 0.4 mm 9 mps 748 mmHg 82%
    13:00 +1°C° 0.3 mm 8 mps 748 mmHg 81%
    14:00 +1°C° 0.3 mm 8 mps 748 mmHg 81%
    15:00 +1°C° 0.3 mm 8 mps 748 mmHg 80%
    16:00 0°C° 0.1 mm 8 mps 748 mmHg 80%
    17:00 0°C° 0.1 mm 7 mps 748 mmHg 81%
    18:00 0°C° 0.1 mm 7 mps 748 mmHg 81%
    19:00 0°C° 0.1 mm 7 mps 748 mmHg 81%
    20:00 0°C° 0.1 mm 8 mps 748 mmHg 81%
    21:00 0°C° 0.1 mm 8 mps 749 mmHg 81%
    22:00 0°C° 0.1 mm 8 mps 749 mmHg 82%
    23:00 0°C° 0.1 mm 8 mps 749 mmHg 84%
    Show more